loading
DOY 203 | 2024-07-21T09:43:21Z

STARLINK-31663, 59576

Orbit data source: Space-Track

STARLINK-31663, 59576 is a payload satellite owned by SpaceX/Seattle (US) in LEO that was launched on Tue, 23 Apr 2024 UTC via a Falcon 9 launch vehicle from the Air Force Eastern Test Range (AFETR). Payloads include a variety of satellites, spacecraft, and rockets equipped with specific instruments for various scientific and technological missions. These include communications satellites like Starlink; space stations such as the ISS; scientific satellites like the Hubble; Earth observation satellites from companies like Planet Labs, Umbra, and HawkEye 360; GPS; miniature CubeSats for education and research; and military/defense satellites.

Loading next visibility...
Loading greatness...
STARLINK-31663 details
NORAD ID59576
COSPAR ID
2024-076N
Orbit
LEO
Last TLE update19 hours ago
Origin
Flag of USSpaceX/Seattle (US)
ManufacturerSpaceX/Seattle
BusStarlink V2M
MotorUnknown
Mass750 kg wet, ~700 kg dry
Launch date (UTC)
2024-04-23 (3 months ago)
Launch vehicle
Falcon 9
Launch site
Air Force Eastern Test Range (AFETR)
Object type
Payload
Rocket body
Debris
Radar Cross SectionLarge (>1 m²)
Predictive object data (real-time)
Latitude25.62453°
Longitude157.99868°
Altitude444.488 km
Speed7.649 km/s
Apparent Right ascension17h 29m 37s
Apparent Declination-21° 47' 48"
Sunlit
Object is in full shadow
Predictive observer data (real-time)
Local Sidereal Time22:41:30
Azimuth245.756° WSW
Elevation-5.154°
Doppler factor1
Orbital elements
Apogee446.789 km
Perigee445.21 km
Semi-major axis6,824.136 km
Eccentricity0.0001157
Inclination42.9981°
RAAN168.9145°
Arg. of periapsis268.2524°
True anomaly91.83325°
Mean anomaly91.82°
Mean motion3.8501 °/min
BSTAR0.00011926
Period93.5 mins
Definitive object data (Epoch: 2024-07-20T14:26:38.028Z)
Latitude-0°
Longitude13.3951°
Altitude443.842 km
Speed7.648 km/s
True Right ascension11h 15m 39s
True Declination0° 00' 00"
Sunlit
Object was in daylight at TLE epoch
TLE from 19 hours ago
0 STARLINK-31663
1 59576U 24076N   24202.60182903  .00004681  00000-0  11926-3 0  9991
2 59576  42.9981 168.9145 0001157 268.2524  91.8200 15.40699754 14863
Epoch: 2024-07-20T14:26Z
No data available

STARLINK-31663 Visibility forecast

Observer location: 39.9160978°, -105.1181434

STARLINK-31663 is not visible in the next 10 days
Span
Click to sort rows by Start time (UTC) header in descending order
Start Az.
Max El. time (UTC)
Max El. Az.
Max El.
End time (UTC)
End Az.